OPS 4682 DEB, 38406

Orbit data source: Space-Track

OPS 4682 DEB, 38406 is space debris in LEO originally from a launch on Sat, 03 Apr 1965 UTC launched from the Air Force Western Test Range (AFWTR). Debris objects in space refer to the collection of defunct objects orbiting the Earth. Examples of debris include non-operational satellites, rocket bodies, and fragments generated from explosions, collisions, or faulty payload assembly.

Loading next visibility...
Identifier
38406, 1965-027DK
Orbit
LEO
Country
Flag of USUS
Related business
Manufacturer
Unknown
Mission
Spacecraft
Bus & Motor
Unknown
Mass
Unknown
Launch date (UTC)
1965-04-03 (61 years ago)
Launch vehicle
Unknown
Launch site
Air Force Western Test Range (AFWTR)
Object type
Payload
Rocket body
Debris
Shape & HBR
Unknown shape, 0.1 m
Radar Cross Section
Small (<0.1 m²)

Expand to show TLE details & history
Last TLE update: 2 days ago

TLE from 2 days ago
0 OPS 4682 DEB
1 38406U 65027DK  25301.45634079  .00000073  00000-0  21598-3 0  9998
2 38406  90.2418   6.0131 0027755 142.1084 218.1999 13.00182912525158
Epoch: 2025-10-28T10:57Z
TLE epoch observation values (Epoch: 2025-10-28T10:57:07.844Z)
Latitude
0.00004°
Longitude
164.68685°
Altitude
1,280.943 km
Speed
7.208 km/s
True Right ascension
00h 24m 03s
True Declination
0° 00' 00"
Sunlit
Object was in full shadow at epoch
Visualization orbit readout
Latitude
Unknown
Longitude
Unknown
Altitude
Unknown
Speed
Unknown
Apparent Right ascension
Unknown
Apparent Declination
Unknown
Sunlit
N/A
Visualization observer readout
Local Sidereal Time
22:14:14
Azimuth
Unknown
Elevation
Unknown
Doppler factor
Unknown
Orbital elements
Apogee altitude
1,279.692 km
Perigee altitude
1,237.301 km
Semi-major axis
7,636.634 km
Eccentricity
0.00278
Inclination
90.2418°
RAAN
6.0131°
Arg. of periapsis
142.1084°
True anomaly
218.00375°
Mean anomaly
218.1999°
Eccentric anomaly
218.10177°
Mean motion
3.2523 °/min
Orbital period
110.69 mins
BSTAR
0.00021598
Loading maneuver chart data...
Computing Atmospheric mass density...
Loading historical data...
Loading historical data...
Loading historical data...
Loading historical data...
Loading historical data...
Loading historical data...
Loading historical data...

Documentation

Showing up to 5 results
|